When you browse on this site, cookies collect data to enhance your experience and personalize the content and advertising you see.
Visit our Privacy Policy to learn more. By continuing to use the site, you agree to this use of cookies and data.
  • In Latvia
  • List of Countries
  • For 7 days
  • Water Temperature
  • Weather Map
  • Weather Widgets
  • user-avatar
    Login

    Hourly Weather Gold Coast

    Today, 14 October, Monday

    Time Temperature Precipitation Wind Pressure Humidity
    00:00 +13°C° 0 mm 3 mps 760 mmHg 94%
    01:00 +12°C° 0 mm 3 mps 760 mmHg 96%
    02:00 +13°C° 0 mm 3 mps 760 mmHg 95%
    03:00 +14°C° 0 mm 2 mps 760 mmHg 94%
    04:00 +13°C° 0 mm 2 mps 759 mmHg 95%
    05:00 +15°C° 0 mm 2 mps 760 mmHg 88%
    06:00 +18°C° 0 mm 1 mps 760 mmHg 80%
    07:00 +19°C° 0 mm 1 mps 761 mmHg 73%
    08:00 +21°C° 0 mm 1 mps 760 mmHg 67%
    09:00 +22°C° 0 mm 1 mps 760 mmHg 62%
    10:00 +24°C° 0 mm 1 mps 760 mmHg 57%
    11:00 +24°C° 0 mm 2 mps 759 mmHg 55%
    12:00 +25°C° 0 mm 2 mps 758 mmHg 54%
    13:00 +26°C° 0 mm 3 mps 758 mmHg 53%
    14:00 +25°C° 0 mm 3 mps 757 mmHg 55%
    15:00 +25°C° 0 mm 4 mps 757 mmHg 57%
    16:00 +25°C° 0 mm 4 mps 756 mmHg 60%
    17:00 +22°C° 0 mm 4 mps 757 mmHg 70%
    18:00 +20°C° 0 mm 3 mps 757 mmHg 80%
    19:00 +18°C° 0 mm 3 mps 757 mmHg 90%
    20:00 +17°C° 0 mm 3 mps 757 mmHg 91%
    21:00 +17°C° 0 mm 3 mps 757 mmHg 92%
    22:00 +17°C° 0 mm 3 mps 757 mmHg 92%
    23:00 +17°C° 0 mm 3 mps 757 mmHg 93%

    Tomorrow, 15 October, Tuesday

    Time Temperature Precipitation Wind Pressure Humidity
    00:00 +16°C° 0 mm 3 mps 757 mmHg 94%
    01:00 +16°C° 0 mm 3 mps 756 mmHg 95%
    02:00 +16°C° 0 mm 3 mps 756 mmHg 95%
    03:00 +17°C° 0 mm 3 mps 756 mmHg 94%
    04:00 +17°C° 0 mm 3 mps 756 mmHg 94%
    05:00 +18°C° 0.2 mm 3 mps 756 mmHg 92%
    06:00 +18°C° 0.2 mm 3 mps 757 mmHg 90%
    07:00 +19°C° 0.2 mm 3 mps 757 mmHg 88%
    08:00 +21°C° 0.2 mm 3 mps 757 mmHg 82%
    09:00 +22°C° 0.2 mm 4 mps 757 mmHg 77%
    10:00 +23°C° 0.2 mm 4 mps 757 mmHg 71%
    11:00 +23°C° 0.1 mm 4 mps 756 mmHg 71%
    12:00 +23°C° 0.1 mm 4 mps 755 mmHg 70%
    13:00 +23°C° 0.1 mm 4 mps 755 mmHg 69%
    14:00 +25°C° 0.1 mm 4 mps 755 mmHg 69%
    15:00 +25°C° 0.1 mm 4 mps 755 mmHg 69%
    16:00 +25°C° 0.1 mm 4 mps 755 mmHg 70%
    17:00 +22°C° 0 mm 4 mps 755 mmHg 78%
    18:00 +21°C° 0 mm 4 mps 755 mmHg 87%
    19:00 +19°C° 0 mm 3 mps 756 mmHg 95%
    20:00 +19°C° 0.1 mm 3 mps 756 mmHg 95%
    21:00 +20°C° 0.1 mm 3 mps 757 mmHg 95%
    22:00 +20°C° 0.1 mm 3 mps 757 mmHg 95%
    23:00 +19°C° 0 mm 3 mps 757 mmHg 96%

    Day after tomorrow, 16 October, Wednesday

    Time Temperature Precipitation Wind Pressure Humidity
    00:00 +19°C° 0 mm 3 mps 757 mmHg 97%
    01:00 +19°C° 0 mm 3 mps 757 mmHg 97%
    02:00 +19°C° 0 mm 3 mps 757 mmHg 97%
    03:00 +18°C° 0 mm 3 mps 757 mmHg 97%
    04:00 +18°C° 0 mm 3 mps 757 mmHg 98%
    05:00 +19°C° 0 mm 3 mps 757 mmHg 94%
    06:00 +20°C° 0 mm 3 mps 758 mmHg 90%
    07:00 +21°C° 0 mm 3 mps 758 mmHg 86%
    08:00 +24°C° 0 mm 3 mps 758 mmHg 77%
    09:00 +26°C° 0 mm 4 mps 758 mmHg 68%
    10:00 +28°C° 0 mm 5 mps 758 mmHg 59%
    11:00 +28°C° 0 mm 5 mps 757 mmHg 56%
    12:00 +29°C° 0 mm 5 mps 757 mmHg 54%
    13:00 +30°C° 0 mm 6 mps 756 mmHg 51%
    14:00 +29°C° 0 mm 6 mps 756 mmHg 55%
    15:00 +28°C° 0 mm 6 mps 756 mmHg 60%
    16:00 +27°C° 0 mm 6 mps 755 mmHg 64%
    17:00 +24°C° 0 mm 6 mps 756 mmHg 72%
    18:00 +23°C° 0 mm 6 mps 756 mmHg 80%
    19:00 +21°C° 0 mm 6 mps 756 mmHg 88%
    20:00 +21°C° 0 mm 6 mps 756 mmHg 89%
    21:00 +20°C° 0 mm 6 mps 756 mmHg 90%
    22:00 +20°C° 0 mm 6 mps 757 mmHg 91%
    23:00 +20°C° 0 mm 6 mps 756 mmHg 92%

    17 October, Thursday

    Time Temperature Precipitation Wind Pressure Humidity
    00:00 +19°C° 0 mm 6 mps 756 mmHg 92%
    01:00 +19°C° 0 mm 6 mps 755 mmHg 92%
    02:00 +19°C° 0 mm 6 mps 755 mmHg 93%
    03:00 +19°C° 0 mm 6 mps 755 mmHg 93%
    04:00 +19°C° 0 mm 6 mps 755 mmHg 93%
    05:00 +20°C° 0 mm 6 mps 756 mmHg 88%
    06:00 +21°C° 0 mm 6 mps 756 mmHg 83%
    07:00 +22°C° 0 mm 7 mps 756 mmHg 78%
    08:00 +23°C° 0 mm 7 mps 756 mmHg 71%
    09:00 +26°C° 0 mm 7 mps 756 mmHg 65%
    10:00 +27°C° 0 mm 7 mps 756 mmHg 59%
    11:00 +29°C° 0 mm 7 mps 755 mmHg 54%
    12:00 +32°C° 0 mm 7 mps 755 mmHg 50%
    13:00 +33°C° 0 mm 7 mps 754 mmHg 45%
    14:00 +32°C° 0.1 mm 7 mps 754 mmHg 51%
    15:00 +30°C° 0.1 mm 7 mps 753 mmHg 57%
    16:00 +29°C° 0.1 mm 7 mps 753 mmHg 62%
    17:00 +27°C° 0.1 mm 6 mps 754 mmHg 71%
    18:00 +23°C° 0.1 mm 5 mps 754 mmHg 79%
    19:00 +21°C° 0.1 mm 4 mps 755 mmHg 88%
    20:00 +21°C° 0 mm 3 mps 756 mmHg 84%
    21:00 +20°C° 0 mm 3 mps 756 mmHg 81%
    22:00 +20°C° 0 mm 2 mps 757 mmHg 78%
    23:00 +20°C° 0 mm 3 mps 757 mmHg 65%

    18 October, Friday

    Time Temperature Precipitation Wind Pressure Humidity
    00:00 +19°C° 0 mm 3 mps 758 mmHg 53%
    01:00 +19°C° 0 mm 3 mps 758 mmHg 40%
    02:00 +19°C° 0 mm 4 mps 758 mmHg 48%
    03:00 +17°C° 0 mm 5 mps 758 mmHg 57%
    04:00 +16°C° 0 mm 6 mps 758 mmHg 65%
    05:00 +17°C° 0 mm 5 mps 759 mmHg 62%
    06:00 +19°C° 0 mm 5 mps 760 mmHg 59%
    07:00 +21°C° 0 mm 5 mps 760 mmHg 56%
    08:00 +22°C° 0 mm 4 mps 760 mmHg 50%
    09:00 +25°C° 0 mm 4 mps 761 mmHg 44%
    10:00 +26°C° 0 mm 4 mps 761 mmHg 38%
    11:00 +27°C° 0 mm 4 mps 760 mmHg 39%
    12:00 +27°C° 0 mm 4 mps 760 mmHg 39%
    13:00 +27°C° 0 mm 4 mps 760 mmHg 40%
    14:00 +26°C° 0 mm 4 mps 759 mmHg 44%
    15:00 +25°C° 0 mm 4 mps 759 mmHg 49%
    16:00 +23°C° 0 mm 4 mps 758 mmHg 53%
    17:00 +21°C° 0 mm 3 mps 758 mmHg 61%
    18:00 +19°C° 0 mm 3 mps 759 mmHg 68%
    19:00 +17°C° 0 mm 2 mps 759 mmHg 76%
    20:00 +16°C° 0 mm 2 mps 760 mmHg 78%
    21:00 +16°C° 0 mm 2 mps 760 mmHg 80%
    22:00 +15°C° 0 mm 2 mps 760 mmHg 82%
    23:00 +15°C° 0 mm 2 mps 760 mmHg 83%

    19 October, Saturday

    Time Temperature Precipitation Wind Pressure Humidity
    00:00 +15°C° 0 mm 1 mps 760 mmHg 84%
    01:00 +15°C° 0 mm 1 mps 760 mmHg 86%
    02:00 +14°C° 0 mm 2 mps 759 mmHg 86%
    03:00 +14°C° 0 mm 2 mps 759 mmHg 87%
    04:00 +14°C° 0 mm 2 mps 759 mmHg 87%
    05:00 +16°C° 0 mm 2 mps 760 mmHg 79%
    06:00 +18°C° 0 mm 2 mps 760 mmHg 72%
    07:00 +20°C° 0 mm 2 mps 761 mmHg 64%
    08:00 +24°C° 0 mm 2 mps 760 mmHg 52%
    09:00 +27°C° 0 mm 3 mps 760 mmHg 39%
    10:00 +30°C° 0 mm 3 mps 760 mmHg 27%
    11:00 +31°C° 0 mm 3 mps 759 mmHg 25%
    12:00 +33°C° 0 mm 4 mps 758 mmHg 22%
    13:00 +34°C° 0 mm 4 mps 758 mmHg 20%
    14:00 +33°C° 0 mm 4 mps 757 mmHg 22%
    15:00 +33°C° 0 mm 5 mps 757 mmHg 23%
    16:00 +32°C° 0 mm 5 mps 756 mmHg 25%
    17:00 +28°C° 0 mm 4 mps 757 mmHg 41%
    18:00 +24°C° 0 mm 3 mps 757 mmHg 57%
    19:00 +20°C° 0 mm 3 mps 758 mmHg 73%
    20:00 +19°C° 0 mm 2 mps 758 mmHg 75%
    21:00 +18°C° 0 mm 2 mps 759 mmHg 77%
    22:00 +18°C° 0 mm 2 mps 759 mmHg 80%
    23:00 +17°C° 0 mm 2 mps 759 mmHg 73%
    Show more